Location: Haram ta Haram Freeway
(35.0583°N, 51.4202°E)
Time: 03:35:46
(UTC+04:30)

Envisat - Visible Passes

Search period start: 28 July 2021 00:00
Search period end: 07 August 2021 00:00
Orbit: 764 x 766 km, 98.2° (Epoch: 27 July)

Date Brightness Start Highest point End Pass type
(mag) Time Alt. Az. Time Alt. Az. Time Alt. Az.
28 Jul 5.7 05:08:50 10° ENE 05:11:39 15° E 05:14:28 10° SE visible
30 Jul 5.2 05:32:54 10° NE 05:37:12 27° E 05:41:28 10° SSE visible
31 Jul 6.0 04:58:39 10° ENE 05:00:04 11° E 05:01:27 10° ESE visible
02 Aug 5.5 05:21:49 10° NE 05:25:39 21° E 05:29:26 10° SE visible
04 Aug 4.6 05:46:24 10° NNE 05:51:08 38° E 05:55:50 10° SSE visible
05 Aug 5.7 05:10:56 10° NE 05:14:03 16° E 05:17:10 10° SE visible
